sat.trackr.live / text

‹ back to catalog

STARLINK-3124

NORAD 49456 · 2021-104BA

PAYLOAD ACTIVE UNKNOWN

§ Identity

Operator
Country
US
Launch date
2021-11-13
Launch site
AFETR
Launch vehicle
Mass (kg)
RCS (m²)

Purposes: comms

External: N2YO · Heavens-Above · Gunter

§ Orbital elements

Epoch: 2026-05-24T23:33:55.237248Z

Period
95.44 min
Inclination
53.2152°
Eccentricity
0.0001037
Mean motion
15.08839548 rev/d
Perigee alt
539.0 km
Apogee alt
540.5 km
Semi-major
6,917.9 km
B*
5.7572e-5
RAAN
236.6801°
Arg perigee
87.1409°
Mean anomaly
272.9702°
Rev number
25,029

§ Raw data

STARLINK-31241 49456U 21104BA  26144.98188932  .00000629  00000+0  57572-4 0  99972 49456  53.2152 236.6801 0001037  87.1409 272.9702 15.08839548250292

JSON: /api/v1/satellites/49456 · /tle

For live sub-satellite position, see the globe view (requires WebGL).

§ Visibility from observer

Set your observer location to see the next 7 days of passes ≥ 10°. The values pass through the URL so the page stays shareable.

No JS? Fill the form by hand. The geolocation button needs JavaScript.